Theta_e
305 304 306 306 307 306 306 304 303 304 305 304 305 305 305 305 303 306 309 311 312 313 314 314 314 314 314 314 314 314 313 312 310 309 307 305 304 303 302 301 301 301
304 303 303 303 304 302 303 303 303 303 304 304 304 304 303 301 301 303 305 306 307 309 310 310 310 310 310 311 311 311 311 311 310 309 307 305 304 303 303 302 301 302
302 302 302 303 304 303 302 301 302 303 303 303 302 301 301 299 300 300 302 303 304 305 306 307 308 308 308 308 309 309 309 309 308 308 305 305 304 304 304 303 302 301
301 302 303 303 303 302 301 301 301 301 300 300 301 300 300 299 299 299 300 300 302 302 302 302 304 305 305 306 307 308 308 308 308 307 305 305 304 303 303 302 302 302
300 301 301 301 301 300 298 300 301 300 300 301 298 297 297 298 297 297 297 297 298 299 298 299 300 302 303 305 305 306 306 306 306 305 304 304 304 303 303 301 300 299
299 300 300 300 300 299 299 300 301 300 300 298 299 296 298 296 297 296 295 295 294 296 297 297 298 299 300 302 303 304 304 303 302 303 303 302 301 299 301 300 299 299
298 296 297 298 297 297 299 300 300 299 299 298 292 297 294 295 295 296 296 295 296 296 298 299 299 299 298 300 300 301 300 300 299 298 299 299 298 297 297 298 297 297
296 293 296 295 296 296 297 298 298 297 296 292 294 296 292 295 295 295 293 294 295 296 296 297 298 300 298 298 298 298 297 298 298 296 296 297 296 296 295 295 295 296
293 294 294 292 293 295 294 296 295 293 291 294 294 294 291 293 294 293 293 293 294 295 296 296 296 296 296 296 296 297 297 296 297 295 295 296 296 296 296 294 294 294
292 293 291 291 292 294 294 294 293 293 291 293 294 293 293 292 292 293 293 293 293 294 294 294 294 294 294 294 296 296 296 296 295 295 295 295 296 296 295 294 294 293
291 290 291 291 292 293 293 293 292 291 290 292 292 292 293 292 291 291 292 292 293 294 294 293 293 293 293 293 293 293 294 295 295 295 295 295 295 296 294 295 294 294
291 290 291 292 292 292 292 292 291 291 291 291 291 293 292 291 292 291 291 292 293 293 293 293 292 292 292 293 292 292 292 293 294 294 294 294 294 294 294 294 294 293
292 292 292 292 292 292 291 291 291 291 290 292 290 291 292 292 291 292 291 291 292 292 292 293 292 292 292 292 292 292 292 293 293 293 293 293 294 294 294 293 293 293
293 292 292 292 291 291 291 291 291 290 290 290 288 290 291 292 292 292 291 290 292 292 292 291 291 291 291 291 291 291 291 291 292 291 292 292 292 292 292 292 292 292
292 292 292 291 290 290 291 291 290 290 289 289 288 289 290 290 291 291 291 290 290 290 291 290 291 292 292 291 291 290 290 290 291 291 291 291 291 291 291 291 291 291
291 290 291 290 290 291 291 290 290 289 288 288 289 289 289 289 289 289 290 291 291 290 290 290 291 292 291 292 292 291 290 291 291 291 291 291 290 290 290 290 290 290
289 289 289 289 290 290 290 290 290 289 288 288 288 288 288 288 288 288 289 289 290 290 290 290 291 291 291 293 294 294 291 289 290 290 290 290 290 290 290 289 289 289
288 289 288 289 288 289 289 289 288 288 288 288 288 288 288 287 287 288 289 289 289 289 289 290 290 290 292 293 294 294 293 290 290 290 290 290 289 289 289 289 288 288
289 289 289 288 289 288 288 288 287 287 288 288 288 288 287 287 288 287 288 288 288 288 288 288 288 290 292 293 293 293 294 292 290 289 289 289 289 289 289 288 287 286
288 288 288 288 288 288 287 287 287 288 288 288 288 287 287 287 287 287 287 287 287 287 288 288 287 289 291 292 292 292 293 293 289 288 288 288 289 289 288 288 287 286
288 288 288 288 288 287 287 287 287 287 287 287 287 288 287 287 288 287 287 287 286 286 287 287 287 290 291 291 292 292 292 292 288 287 287 287 288 287 287 287 286 285
287 287 287 287 287 287 286 287 287 287 287 287 286 286 286 285 286 286 286 286 286 286 286 286 286 289 290 291 291 292 292 289 288 287 286 286 286 286 286 285 285 284
286 286 286 287 287 286 286 287 287 287 287 285 285 286 286 285 286 286 286 286 285 285 285 285 285 287 290 290 291 291 291 287 287 286 286 285 285 285 284 284 284 284
286 285 285 286 286 286 286 287 286 286 286 285 285 286 285 285 285 285 284 284 284 284 284 284 285 286 289 290 290 291 289 287 286 286 285 285 284 283 283 283 283 284
285 284 284 284 285 285 286 286 286 286 285 282 283 284 285 283 282 282 282 281 282 283 283 284 284 284 288 289 290 290 289 286 286 285 284 283 283 282 282 282 282 283
284 283 283 283 284 284 284 285 284 283 283 282 282 281 282 280 279 281 281 281 280 280 281 282 282 282 285 288 289 289 290 287 286 285 284 283 282 282 281 282 282 282
Wind_Speed
6 5 8 8 9 8 7 7 6 8 8 7 8 8 8 7 5 7 8 9 9 10 10 10 10 10 10 10 8 7 8 11 11 11 12 11 11 12 13 14 13 12
8 7 7 6 6 5 6 6 7 8 9 8 8 7 5 4 5 6 7 8 9 10 9 9 9 9 9 8 8 8 8 9 12 10 13 16 15 15 16 17 16 14
6 7 8 9 9 8 7 6 7 7 8 8 6 5 5 5 6 6 7 7 8 9 9 9 9 9 9 9 8 9 9 10 11 10 9 12 11 13 16 16 15 16
7 8 8 8 7 7 5 6 7 6 5 7 6 6 6 5 5 6 7 7 8 8 7 7 9 8 9 9 9 9 10 11 10 8 10 9 10 11 11 9 10 10
7 8 7 7 6 5 5 7 8 6 7 8 5 5 5 6 6 7 7 7 7 7 7 8 7 8 8 9 9 9 10 10 8 7 8 9 9 10 11 10 11 12
7 6 6 6 6 6 7 9 9 8 8 6 7 5 7 5 6 7 7 8 7 8 8 8 8 8 8 9 9 10 9 8 7 7 9 9 9 8 8 9 11 12
7 5 7 6 6 7 8 9 8 8 8 7 5 8 5 7 7 8 7 8 8 9 10 9 9 9 8 8 9 10 9 8 6 7 9 8 7 8 8 9 10 11
6 5 6 5 7 7 9 10 8 7 7 5 7 8 6 8 8 7 7 8 8 9 9 10 10 10 8 8 10 10 10 7 7 7 8 9 6 9 7 7 7 9
6 7 6 6 7 9 9 10 9 7 6 8 9 8 6 8 8 8 8 8 9 9 9 9 9 9 8 8 10 10 10 8 8 7 9 9 9 10 9 7 8 10
7 7 6 7 9 10 10 9 8 7 6 8 10 8 10 9 8 9 8 9 10 10 9 9 9 8 8 9 10 10 10 9 8 8 9 9 10 10 9 8 10 10
8 7 7 8 10 9 10 9 8 7 6 9 7 8 8 6 8 7 8 9 11 11 10 10 10 9 10 10 9 8 9 9 8 8 9 10 10 10 9 10 10 11
9 7 8 10 10 10 10 9 8 8 8 8 8 10 8 8 9 8 9 11 10 10 10 10 9 9 10 11 10 9 9 9 9 9 9 9 9 9 9 9 10 10
9 9 8 8 9 9 8 7 8 8 7 9 7 8 8 9 9 9 9 9 10 9 11 11 10 10 10 10 9 9 9 9 9 9 9 9 9 9 9 9 9 9
10 9 8 8 7 7 8 8 8 7 8 7 6 9 10 10 10 10 9 8 10 10 10 9 9 9 10 10 9 9 9 9 9 9 9 9 8 8 8 9 9 9
9 8 7 8 7 8 8 9 8 7 7 7 7 9 8 9 9 8 8 9 10 9 9 9 10 11 10 10 10 10 9 9 9 9 9 9 9 9 8 8 8 8
8 8 8 8 8 9 9 8 8 7 6 7 8 9 9 8 8 8 8 10 10 10 9 9 10 9 11 15 13 10 9 9 8 9 9 9 9 8 8 8 8 7
7 8 7 8 9 8 8 8 9 7 7 8 8 8 9 8 7 8 9 9 10 10 10 10 9 8 12 14 15 15 10 8 9 8 8 8 8 8 9 8 7 7
7 7 7 8 7 9 8 8 7 7 8 8 8 9 9 6 8 10 10 9 9 9 10 10 9 9 13 14 15 15 13 9 8 8 8 8 8 8 7 7 7 6
10 10 10 9 9 8 8 7 7 8 8 8 10 9 6 8 10 9 10 8 9 10 10 9 8 9 13 14 14 14 15 12 7 6 6 7 7 7 7 7 5 5
9 10 10 10 9 9 8 8 7 9 8 7 7 6 7 8 8 10 9 9 9 9 10 8 8 9 13 14 14 15 15 13 7 7 7 7 7 6 6 6 6 7
10 10 11 11 9 9 8 8 8 9 8 8 7 8 8 9 9 9 9 8 8 8 8 9 8 11 13 13 14 14 14 12 6 5 5 5 5 5 5 6 6 6
9 11 11 11 10 10 9 9 9 9 10 8 7 8 7 7 7 7 9 9 9 8 8 10 8 11 12 13 14 12 13 8 5 6 6 5 5 5 5 5 5 6
10 11 12 11 10 10 10 10 10 10 8 5 7 8 8 8 9 9 8 8 8 8 9 9 7 9 12 13 13 12 9 6 5 5 5 5 5 4 4 5 6 7
10 9 11 12 10 11 11 11 9 8 8 5 7 8 9 9 8 8 7 7 8 9 9 9 8 8 12 12 12 13 9 6 5 5 5 5 4 4 5 6 8 12
9 9 9 10 11 11 9 11 10 9 8 5 7 7 9 6 6 7 7 6 6 7 8 9 6 6 8 9 11 11 9 6 6 6 6 6 6 5 5 5 5 7
9 9 9 9 11 11 9 9 8 8 8 7 7 6 8 6 6 6 7 7 5 5 6 6 5 4 5 9 12 14 14 8 6 6 7 6 6 5 5 4 6 6
Wind_Direction
229 221 229 227 232 227 227 225 222 230 232 230 231 232 225 231 214 216 223 225 230 234 235 235 234 235 236 239 242 243 234 227 223 220 224 224 231 228 223 218 216 215
227 225 230 235 243 234 235 222 229 224 236 229 233 237 235 223 222 211 220 224 226 232 233 232 230 230 230 231 232 239 245 239 235 223 219 212 213 212 219 218 218 218
231 229 227 229 233 233 229 228 230 233 234 236 235 230 237 219 226 219 223 223 227 232 233 235 238 237 236 235 234 238 243 243 238 224 222 225 222 219 222 215 214 213
235 230 232 236 233 238 228 232 237 238 242 247 235 226 221 224 218 225 225 224 229 231 231 232 235 238 239 240 237 239 240 243 242 231 225 221 218 222 227 226 229 226
231 234 233 238 238 236 232 236 242 236 237 242 245 225 225 222 222 227 225 227 227 235 230 232 232 234 232 237 235 241 238 240 234 228 227 226 222 217 222 217 219 222
243 233 229 230 230 227 233 235 237 232 236 239 232 223 228 219 224 227 223 226 226 230 232 231 231 232 230 233 233 237 238 239 238 230 233 231 229 220 220 220 223 225
253 249 249 237 234 224 233 239 240 231 232 229 218 230 211 220 225 226 223 223 224 226 228 228 228 231 226 229 232 239 237 237 236 232 240 244 235 231 223 220 220 224
267 259 252 252 249 245 238 239 237 234 230 222 229 232 199 223 225 223 221 221 224 228 228 229 229 231 226 224 232 236 240 232 234 233 242 248 233 238 225 225 225 226
266 261 254 250 250 250 249 248 241 229 210 221 231 233 212 218 223 219 219 219 225 229 227 227 226 228 224 221 231 232 234 233 226 222 231 237 236 236 230 218 223 225
261 258 254 248 246 249 250 249 246 245 230 229 230 220 222 219 211 215 214 217 224 227 225 226 226 225 224 224 228 227 231 234 229 226 229 232 234 236 229 218 221 225
266 258 255 251 248 253 252 252 246 244 232 233 235 236 234 229 231 215 216 216 221 222 221 221 222 218 222 227 228 226 228 231 232 230 230 231 231 232 229 223 222 224
274 269 258 256 256 258 255 255 251 242 240 239 227 238 232 227 227 220 216 222 221 221 218 221 216 214 219 223 222 220 225 229 232 232 232 232 231 231 230 224 223 225
283 275 267 266 262 261 265 259 251 247 242 243 232 235 235 234 230 229 224 221 225 219 221 217 214 213 219 221 219 217 219 224 231 231 231 231 230 229 228 226 223 223
277 280 281 275 275 272 266 261 259 253 246 248 237 236 236 237 234 230 231 219 227 224 224 216 213 215 219 218 216 214 215 221 220 228 233 234 234 231 226 226 222 220
281 284 286 284 282 277 272 267 261 256 253 245 238 243 239 239 237 233 230 230 232 230 230 218 216 219 216 212 211 213 213 217 218 223 226 231 232 232 229 227 225 220
287 288 285 284 281 274 270 269 267 260 253 247 242 240 243 238 239 234 231 233 233 232 229 226 228 227 220 213 209 209 209 216 216 221 222 227 229 233 232 225 226 219
290 284 282 277 270 270 270 269 267 261 252 249 247 243 241 238 232 234 231 232 233 233 229 228 232 231 225 218 217 215 212 217 217 221 221 225 226 228 232 227 223 220
297 292 290 285 283 276 273 270 268 262 255 250 250 246 242 235 234 233 235 232 234 235 235 232 233 230 225 223 221 220 217 218 220 222 219 222 224 226 230 226 224 218
322 318 310 305 296 291 286 282 272 266 259 255 251 247 244 233 236 234 238 233 231 235 237 234 237 225 226 225 223 222 223 220 224 222 220 223 219 219 219 219 215 206
321 317 312 305 301 297 293 285 277 267 265 258 260 255 239 244 238 236 237 233 229 232 238 236 234 226 226 225 223 224 226 223 224 216 223 222 222 215 212 210 202 195
322 317 311 309 304 297 292 283 274 274 270 259 251 248 241 239 238 237 237 232 232 229 237 239 233 226 227 224 225 226 227 225 218 216 219 226 222 217 211 204 194 188
318 313 309 308 304 299 291 283 276 265 267 263 254 256 248 249 251 236 240 233 228 224 229 238 231 220 222 224 225 224 221 217 211 209 216 216 217 208 207 189 176 169
317 310 307 305 302 298 291 283 278 275 265 252 256 253 249 243 240 234 233 231 228 222 225 234 231 219 219 220 220 214 204 207 201 205 209 211 212 202 187 171 169 169
309 305 302 303 302 296 291 287 279 272 270 245 243 251 247 243 241 248 240 230 227 226 220 227 231 219 219 218 214 211 203 199 194 197 204 199 193 175 173 178 181 176
305 301 295 295 295 291 289 290 287 279 277 257 247 249 252 250 243 245 250 241 237 235 227 227 232 227 214 208 209 205 202 190 187 190 192 189 177 182 179 169 159 167
303 302 296 292 291 291 287 278 284 290 278 265 259 249 257 249 242 237 243 244 233 234 231 224 224 224 206 203 206 206 200 187 182 184 193 187 183 168 145 146 154 157